Location: Helsinki
(60.1699°N, 24.9384°E)
Time: 23:32:35
(UTC+02:00)

Transit 4A - Pass Details

Date: 30 October 2020
Orbit: 862 x 982 km, 66.8° (Epoch: 25 November)

Event Time Altitude Azimuth Distance (km) Brightness Sun altitude
Rises 17:39:21 0° 250° (WSW) 3,646 13.2 -9.2°
Reaches altitude 10° 17:41:56 10° 254° (WSW) 2,714 12.0 -9.5°
Maximum altitude 17:48:15 62° 335° (NNW) 1,101 8.4 -10.3°
Enters shadow 17:54:29 11° 56° (NE) 2,687 9.8 -11.0°
